GFSGL_500_spd_132.txt.gz
Wind_Speed
18 17 16 16 15 16 16 16 15 14 12 12 12 12 12 13 13 13 12 11 11 13 13 12 12 10 8 9 9 9 11 10 9 8 11 11 11 11 11 9 9 9 9
20 19 19 18 17 17 16 15 14 15 16 16 15 15 15 15 14 14 13 13 14 16 15 15 14 15 15 15 14 14 15 14 12 9 11 13 12 9 8 8 9 9 10
22 21 20 19 20 19 19 18 15 14 14 14 16 17 16 16 15 15 17 16 16 17 17 17 17 18 19 18 18 18 18 16 15 14 15 14 11 10 10 10 11 10 12
25 24 23 22 23 22 21 19 18 18 17 16 16 16 16 18 18 19 20 19 18 17 17 18 18 20 20 19 20 21 20 19 19 18 16 14 14 14 14 14 15 14 14
29 28 28 26 26 24 25 24 23 22 21 20 20 20 19 20 21 21 21 20 21 21 20 20 20 20 19 19 20 20 20 20 19 17 16 16 16 17 17 18 17 15 16
31 31 32 33 29 28 29 29 27 27 26 26 24 23 22 22 24 24 24 23 22 24 22 23 21 21 22 21 19 18 19 18 19 19 18 18 17 19 19 21 21 19 19
37 33 32 33 33 36 34 35 35 32 30 28 28 27 27 28 28 28 28 27 26 28 24 26 25 24 23 20 19 20 19 20 22 20 20 20 19 19 21 22 23 22 22
39 39 33 36 35 34 30 32 33 33 33 26 32 33 32 34 32 31 34 35 32 29 28 29 23 26 28 24 25 25 26 25 24 23 26 26 27 27 26 27 27 26 27
42 41 39 38 39 36 40 35 34 35 35 37 37 35 35 37 39 41 41 43 42 36 33 35 33 29 28 27 30 32 33 33 31 30 30 31 32 34 32 30 29 31 31
31 49 44 44 44 40 36 34 34 43 40 41 42 38 40 42 41 36 31 30 39 39 37 38 37 34 34 35 38 38 36 37 37 36 37 36 35 34 34 36 37 39 36
51 26 40 32 28 27 32 36 35 40 40 42 42 39 42 38 39 38 35 24 31 29 37 39 39 36 38 43 44 46 47 41 41 40 36 36 39 40 39 37 38 37 39
31 14 26 32 34 36 36 35 39 32 42 44 45 40 45 45 42 37 32 32 33 40 41 41 41 42 41 43 45 44 44 43 44 43 45 42 38 39 39 39 39 39 37
27 24 23 25 22 21 28 22 23 33 32 33 32 37 35 29 32 29 28 28 28 30 35 38 40 42 46 48 47 49 48 52 49 48 44 39 39 40 44 41 38 34 35
14 12 6 12 14 21 24 26 27 21 28 30 25 24 24 24 22 23 26 29 33 37 32 28 31 33 36 36 41 42 38 37 35 37 35 41 44 48 45 42 36 37 37
19 21 19 17 19 21 24 30 27 26 27 30 33 32 32 33 33 34 38 39 38 38 37 39 41 44 41 43 42 43 45 45 46 42 42 46 47 47 39 39 40 40 41
21 21 21 22 25 26 26 26 29 31 33 35 38 38 39 40 41 41 42 40 41 41 42 43 39 46 47 49 47 46 46 49 48 48 47 47 47 48 47 45 47 48 48
25 25 26 28 27 28 28 30 31 35 37 39 41 42 44 45 45 45 45 45 45 45 49 52 48 50 48 48 49 48 50 49 50 48 48 47 48 47 48 50 51 52 51
30 31 33 34 35 36 37 37 38 39 40 41 42 45 46 48 50 50 44 51 44 42 47 51 48 49 50 51 48 50 53 55 54 51 50 49 50 52 52 52 53 54 56
27 26 28 33 38 40 42 43 44 44 45 45 47 49 49 51 53 54 54 56 55 51 56 51 54 54 54 56 57 50 49 53 58 59 57 56 58 58 58 60 62 64 64
24 26 29 32 33 34 36 37 38 40 42 46 50 52 52 54 56 57 58 59 60 60 64 61 59 61 57 53 51 55 55 56 56 59 59 60 64 66 67 67 66 68 73
30 31 33 35 38 39 40 42 42 43 46 47 47 47 53 57 58 58 59 61 61 62 64 64 64 64 60 60 63 60 58 57 55 58 56 55 55 58 60 63 62 65 69
36 38 40 43 45 47 44 45 48 51 49 48 50 48 47 48 53 58 60 60 58 60 62 63 61 60 59 65 60 52 54 59 56 57 56 55 57 61 64 64 64 63 59
44 45 46 46 47 50 52 53 52 46 43 45 48 51 52 49 49 50 54 55 56 55 54 55 56 57 60 62 59 59 58 58 58 57 56 54 51 52 52 49 54 56 55
47 50 53 55 55 54 53 51 47 44 45 48 51 49 50 49 44 43 44 45 45 46 47 49 50 51 52 52 52 52 52 52 52 51 49 49 50 51 53 53 55 56 59
50 53 55 56 53 50 48 46 45 45 44 46 48 47 45 45 45 46 45 44 45 45 45 45 45 45 46 47 49 50 51 51 50 49 49 50 49 51 50 49 49 49 51
54 55 53 51 49 46 44 43 44 43 43 43 44 46 47 44 45 47 47 46 47 47 46 47 48 48 47 47 47 47 47 47 47 48 47 47 48 48 49 50 49 50 50

GFSGL_500_spd_135.txt.gz
Wind_Speed
19 17 16 16 16 16 15 15 13 13 12 12 12 14 16 15 14 12 11 11 11 12 11 9 8 9 9 10 10 9 9 8 7 9 11 11 10 11 11 10 8 7 7
18 17 17 16 16 17 17 15 15 15 14 14 14 14 15 16 16 16 16 16 15 15 15 15 13 13 14 14 14 13 13 12 12 12 12 14 13 14 13 13 12 10 10
21 20 18 17 18 18 17 16 16 16 16 16 15 15 16 16 16 16 16 16 16 17 19 19 18 19 18 17 17 17 16 15 16 16 16 15 15 16 17 16 14 13 12
24 22 22 22 22 21 19 18 18 18 18 18 17 17 16 18 19 20 19 18 18 18 19 20 20 20 21 20 21 21 21 20 19 18 18 17 18 19 21 19 16 17 16
31 28 27 27 26 25 23 22 22 22 21 20 20 19 18 18 18 19 19 19 20 20 20 22 22 22 22 23 24 24 24 22 21 21 21 20 20 21 22 22 21 20 18
32 32 33 32 32 31 29 28 27 26 25 24 24 24 23 23 23 21 21 21 21 21 22 24 25 26 26 26 25 26 26 25 22 21 21 22 21 22 22 21 21 22 22
34 34 32 35 33 32 33 33 31 30 29 28 27 29 28 29 29 27 26 25 25 23 25 25 29 29 29 29 27 27 28 27 26 24 24 25 25 23 23 23 25 27 29
32 40 35 34 34 35 38 38 34 34 35 33 35 33 34 33 32 31 30 29 30 28 29 30 31 33 30 32 31 30 26 27 27 27 27 26 29 29 29 29 30 30 31
35 36 40 42 43 42 41 41 37 33 34 36 38 38 37 35 32 32 33 35 36 35 34 37 39 38 34 32 31 30 35 31 30 33 35 34 33 34 35 36 36 36 34
30 37 42 45 47 46 43 50 47 40 38 40 38 35 38 37 40 43 40 42 43 45 40 39 39 39 37 38 39 37 35 36 36 38 37 37 39 39 40 41 41 41 40
33 36 43 30 35 31 43 42 41 38 34 38 37 38 41 40 39 45 40 34 36 40 38 36 39 42 43 43 43 42 43 41 44 45 45 44 46 44 43 41 42 41 40
20 34 37 29 36 32 35 27 31 36 36 37 36 41 41 43 44 41 44 46 45 40 45 44 34 38 42 44 46 46 44 44 44 45 44 44 44 46 45 45 46 43 43
18 20 24 29 25 18 27 27 31 35 32 32 38 40 42 38 37 39 36 42 39 38 43 39 37 44 48 49 48 44 43 43 43 47 47 44 44 50 48 43 40 42 44
12 10 11 18 24 26 16 13 17 22 17 21 27 21 27 25 25 26 24 23 25 27 27 33 34 36 37 39 46 47 38 36 37 38 39 41 38 35 38 40 45 46 47
14 16 14 17 16 22 18 17 16 29 26 27 29 29 27 27 28 30 30 30 33 35 35 36 39 42 41 41 42 41 42 47 46 45 44 43 46 44 47 50 48 48 47
22 20 20 21 21 21 20 21 22 26 28 28 30 30 33 35 35 35 37 39 41 42 42 45 46 46 45 46 47 46 45 46 48 48 49 52 52 49 48 50 52 50 51
24 23 22 22 22 22 24 26 29 30 32 34 36 39 39 39 40 42 43 44 46 46 49 49 47 48 47 48 50 53 55 52 55 53 51 49 50 52 53 53 53 54 55
26 26 27 28 28 29 31 32 33 35 37 39 41 42 43 44 46 46 47 46 48 48 49 51 51 52 50 47 45 49 54 55 52 54 55 56 54 53 54 56 58 59 57
26 26 26 25 25 26 28 29 31 32 35 38 41 45 47 48 48 49 51 52 53 51 54 54 55 57 54 58 59 53 51 49 52 55 60 62 57 56 58 58 60 64 65
17 16 16 18 21 24 26 28 30 32 34 35 37 38 39 40 42 45 48 50 53 56 58 59 63 62 63 64 63 64 63 66 62 58 57 57 62 67 59 64 67 67 68
20 23 25 28 29 30 34 37 39 41 42 43 43 43 45 48 50 50 51 53 55 56 58 60 62 63 64 64 65 65 65 60 57 56 59 57 56 54 52 54 56 54 55
26 28 30 31 34 36 37 39 40 42 45 47 49 52 55 56 56 54 52 52 54 57 59 58 57 58 59 59 59 60 61 62 61 63 64 63 61 60 59 59 57 54 52
32 33 33 36 37 39 41 43 45 48 50 51 51 53 53 55 56 55 54 54 54 54 54 55 56 55 54 54 54 54 54 53 54 53 52 51 48 45 45 47 48 50 49
33 36 39 40 42 44 45 48 50 50 50 51 50 48 48 52 55 58 57 56 53 49 48 47 46 45 45 45 46 46 47 47 48 48 48 49 49 49 50 49 48 49 48
40 40 41 42 45 49 51 52 53 54 53 51 48 46 45 48 51 53 53 49 47 47 46 44 42 42 42 43 43 44 44 44 44 44 45 46 45 45 46 46 45 46 47
39 41 44 47 50 52 54 56 57 55 53 52 50 49 48 48 48 47 43 47 48 44 43 42 39 41 43 43 44 44 45 45 45 44 44 44 44 44 44 43 43 43 42

GFSGL_500_spd_138.txt.gz
Wind_Speed
19 19 19 18 17 17 15 14 12 11 11 9 12 14 15 13 13 11 10 10 11 11 11 9 8 9 9 10 11 11 11 11 11 11 12 13 14 13 12 10 9 7 8
18 18 18 17 17 17 16 15 15 14 12 12 13 13 14 16 17 15 14 14 14 14 13 14 13 13 14 13 13 14 14 14 13 14 13 15 16 16 14 13 12 11 10
21 18 16 16 16 15 14 14 15 15 15 15 16 15 16 17 19 19 17 18 18 16 16 17 17 18 18 17 18 18 17 17 17 17 16 16 17 19 18 17 16 15 15
24 23 21 20 20 18 16 15 15 15 16 16 17 16 18 19 19 19 19 20 20 20 19 20 20 19 19 20 20 21 21 19 19 20 19 19 19 20 19 18 17 17 19
29 28 27 26 25 23 22 21 19 18 19 18 17 18 19 19 20 21 22 22 22 21 21 23 23 23 22 22 23 24 22 22 22 23 24 23 23 22 21 21 20 19 19
33 33 32 30 28 27 25 24 24 25 23 22 22 21 22 21 22 21 22 23 23 24 24 23 25 25 25 26 27 27 27 28 26 26 27 27 26 25 24 24 25 25 21
36 34 33 32 31 29 30 29 29 30 29 28 27 27 28 25 27 26 27 27 27 27 24 23 25 26 26 28 28 29 29 30 32 30 29 29 28 28 28 30 30 30 31
35 28 32 34 35 33 35 34 33 33 32 33 33 34 32 31 32 33 31 32 32 32 30 32 30 30 29 29 30 32 31 32 32 30 32 31 33 32 32 31 33 35 36
29 34 34 32 35 39 37 36 35 35 33 36 38 38 38 37 36 38 36 33 34 35 35 34 36 34 34 38 38 37 36 35 33 33 35 35 35 39 38 37 37 37 40
35 30 30 34 36 36 40 43 44 48 41 37 40 44 35 35 34 36 37 38 36 35 36 39 36 41 42 45 43 42 41 39 40 38 37 37 41 41 42 41 40 44 45
28 28 23 34 30 34 34 39 43 45 46 44 43 49 43 43 40 42 39 37 41 44 43 38 36 36 39 41 43 39 41 42 45 44 45 45 46 48 49 48 48 47 48
21 25 26 28 29 30 30 30 28 25 34 45 49 44 45 43 43 41 38 39 36 36 40 42 46 48 42 40 44 43 45 47 51 51 47 47 49 49 48 49 49 50 52
20 19 20 22 15 16 26 15 26 27 27 31 34 36 41 38 42 41 42 44 41 43 38 38 43 50 50 48 42 40 46 47 49 51 51 51 52 50 48 51 52 54 52
21 22 21 18 15 17 12 15 22 31 26 20 23 16 21 21 17 19 24 26 28 28 30 31 39 38 37 38 37 36 37 39 40 41 40 44 43 43 41 40 40 45 46
23 23 22 20 20 12 17 19 21 20 27 31 30 29 26 31 29 30 27 29 32 32 32 33 35 36 37 38 38 39 41 42 42 42 40 43 49 49 44 45 46 48 50
20 21 24 25 24 24 27 27 22 21 24 23 22 31 32 33 32 30 32 35 38 39 37 39 40 41 42 44 45 46 48 49 49 47 47 49 50 52 54 54 50 51 53
29 28 27 27 28 27 28 29 30 28 29 30 30 29 31 33 35 35 37 42 44 45 45 45 46 46 47 49 51 49 51 54 52 53 52 51 51 55 55 58 59 56 56
31 31 28 27 29 28 27 27 28 29 30 31 32 33 35 37 41 43 45 47 50 50 50 50 52 50 40 47 51 57 57 54 55 52 53 51 48 55 58 60 57 56 58
26 25 24 26 28 30 31 31 29 29 28 29 31 31 33 36 37 40 42 42 47 50 52 52 53 55 55 57 59 62 61 59 59 61 62 63 62 65 66 63 58 54 57
25 23 24 25 24 24 23 23 25 26 28 30 32 33 34 37 39 42 44 46 49 50 51 52 51 50 52 54 54 57 60 62 65 67 67 67 66 64 59 54 53 54 55
21 19 19 21 23 25 27 29 30 32 33 33 34 36 37 38 40 42 44 47 49 53 57 60 62 62 63 61 60 61 60 60 61 61 61 61 62 59 55 55 55 59 60
22 24 25 27 29 31 33 32 34 36 37 38 39 40 44 47 48 49 51 53 54 56 58 60 61 62 63 63 64 62 59 57 56 56 55 53 53 53 54 53 52 50 44
28 30 32 34 35 36 36 39 41 41 42 43 45 48 49 51 53 53 53 54 55 57 57 59 61 62 62 61 62 61 60 57 53 50 47 45 46 46 48 49 49 48 47
34 35 35 36 37 38 40 40 41 42 44 47 49 51 54 54 53 54 53 53 53 52 53 55 58 58 56 52 50 51 50 48 46 43 41 40 40 40 40 41 40 41 42
35 36 36 37 38 38 39 40 43 45 47 49 52 54 53 52 50 50 50 51 52 53 52 52 52 50 48 48 50 50 49 45 41 39 39 41 42 43 42 43 42 41 42
31 34 37 40 41 42 45 46 48 49 51 52 55 55 53 51 51 50 50 49 49 50 50 49 47 44 46 45 44 41 38 37 39 42 41 41 42 41 40 39 39 40 40

GFSGL_500_spd_141.txt.gz
Wind_Speed
21 20 19 19 18 17 17 15 13 12 12 11 11 12 12 13 12 12 12 12 11 11 11 10 9 10 10 10 11 12 12 12 13 14 14 13 14 13 11 10 8 8 8
20 20 19 19 18 18 17 16 16 16 15 15 13 12 13 15 15 15 14 14 15 15 13 12 12 12 13 13 14 14 15 15 16 17 18 15 17 17 14 13 13 10 13
19 22 21 22 21 20 19 17 17 17 18 17 17 16 16 16 16 17 18 18 18 17 17 16 17 16 15 16 17 17 18 18 18 18 20 20 20 20 19 17 15 14 13
23 22 22 22 21 19 18 18 18 18 19 19 19 18 18 18 19 19 19 20 20 20 20 20 21 20 19 19 18 18 18 18 20 20 21 22 22 23 23 23 21 21 14
27 26 25 23 22 21 20 19 19 18 18 18 17 17 17 19 18 21 22 22 23 24 23 23 24 22 22 21 22 22 21 21 22 23 23 24 24 24 23 24 24 22 24
31 30 29 28 26 25 23 22 21 21 22 21 20 21 21 19 21 22 21 24 25 24 26 26 26 25 24 23 23 25 25 26 26 26 26 27 26 27 25 26 26 23 24
35 33 31 29 28 26 25 25 25 25 25 26 26 25 25 24 26 23 25 26 27 27 26 27 27 27 24 24 25 24 26 27 30 31 31 31 30 31 32 32 31 31 29
38 36 33 31 30 29 29 28 27 28 30 31 31 30 30 29 31 29 29 30 31 32 34 32 32 32 27 25 28 28 28 27 31 35 34 35 34 33 35 33 36 37 37
37 34 34 32 29 29 32 28 31 33 33 34 36 35 33 31 35 35 33 33 34 35 37 38 37 35 34 34 33 33 34 36 41 40 41 41 38 37 38 38 38 41 43
37 33 35 39 39 33 33 29 31 32 36 38 40 42 41 34 38 37 40 40 38 40 44 40 37 36 36 36 41 39 41 45 48 45 45 45 43 42 40 40 41 45 48
38 43 37 34 35 36 32 29 30 35 35 38 41 45 46 44 50 45 41 43 43 38 41 43 42 40 43 44 42 39 36 37 39 40 41 40 42 45 47 48 48 48 50
34 34 32 23 22 22 33 33 29 31 30 31 26 31 38 43 46 44 45 46 50 51 47 46 43 44 40 41 44 44 46 46 42 43 43 44 46 48 48 51 52 53 53
16 15 17 19 18 17 20 22 26 23 21 26 30 27 27 27 34 36 36 36 39 41 44 45 44 45 46 45 43 45 48 50 48 46 39 44 45 44 44 45 46 50 51
21 23 26 24 23 23 22 23 20 22 23 23 34 24 24 11 21 27 32 22 21 22 25 25 30 33 35 34 38 39 39 40 44 40 40 40 37 38 41 43 41 45 48
25 24 22 24 25 26 26 22 22 21 18 27 30 28 31 33 33 25 25 29 33 29 35 33 35 34 37 38 37 35 37 40 44 45 46 45 45 47 47 46 49 51 53
24 23 23 27 28 28 28 27 27 24 22 24 26 29 28 28 27 30 33 37 36 36 35 35 37 40 42 42 43 43 45 47 49 51 53 54 53 51 51 51 50 52 51
28 27 25 25 27 29 31 31 34 34 34 31 31 32 32 34 33 34 36 38 39 39 39 40 42 44 46 49 51 52 52 54 55 55 56 57 58 59 61 60 60 62 55
38 38 37 36 35 37 35 35 34 34 35 34 33 33 34 35 36 37 37 39 41 42 43 44 45 46 47 47 47 49 53 54 55 59 64 63 63 64 63 61 61 63 65
35 35 36 36 31 29 29 28 27 29 30 32 31 30 30 30 30 31 32 34 35 36 38 40 42 43 45 46 48 51 53 55 56 58 58 60 61 62 62 63 64 66 66
21 21 22 24 25 27 28 28 29 29 27 27 29 29 31 33 34 34 34 34 34 37 40 42 44 47 48 50 51 53 56 58 60 63 65 65 64 64 64 64 63 61 59
24 23 23 23 25 25 25 26 26 28 29 32 33 33 35 35 37 37 38 40 44 48 49 50 51 53 54 56 58 59 61 63 65 67 69 68 63 61 57 56 55 54 52
21 23 24 25 25 25 27 29 31 34 37 38 39 38 40 42 43 44 46 49 50 52 52 53 55 56 58 60 62 64 64 66 66 67 67 64 58 55 53 51 49 48 48
24 25 26 27 29 32 34 36 38 39 41 42 43 46 46 44 46 49 51 54 57 58 58 57 58 58 59 59 60 61 62 62 60 57 53 50 50 48 46 44 43 42 41
31 32 34 36 36 38 40 41 42 43 43 44 45 46 48 52 56 57 58 60 60 60 59 58 59 58 58 58 58 58 57 56 53 48 49 49 49 45 43 41 38 37 38
34 36 37 39 40 40 40 39 41 44 45 48 51 52 52 54 58 59 60 60 60 60 59 57 58 57 57 57 56 56 54 51 49 48 43 42 48 47 39 36 37 38 41
33 33 34 34 34 34 37 39 42 45 48 49 51 55 55 57 58 59 59 59 58 58 56 56 56 57 54 52 53 51 51 51 51 51 46 42 36 34 35 36 37 38 37